Regional Weather Roundup
Issued by NWS Albany, NY

Home | Current Version | Previous Version | Graphics & Text | Print | Product List | Glossary Off
Versions: 1 2 3 4 5 6 7 8 9 10 11 12 13 14 15 16 17 18 19 20 21 22 23 24 25 26 27

000
ASUS41 KALY 290910
RWRALY

NEW YORK STATE HOURLY WEATHER ROUNDUP
NATIONAL WEATHER SERVICE ALBANY NY
500 AM EDT THU SEP 29 2016

NOTE: "FAIR" INDICATES FEW OR NO CLOUDS BELOW 12,000 FEET WITH NO
SIGNIFICANT WEATHER AND/OR NO OBSTRUCTIONS TO VISIBILITY.

NYZ032-033-038>043-046>054-057>066-NYZ062>081-082-084-291000-
EAST


CITY           SKY/WX    TMP DP  RH WIND       PRES   REMARKS
ALBANY         CLOUDY    50  46  86 CALM      30.38R
GLENS FALLS    PTCLDY    45  42  89 N7        30.38R
POUGHKEEPSIE   CLOUDY    57  48  72 VRB6      30.31R
NEWBURGH       CLOUDY    57  52  82 E8        30.33R
MONTGOMERY     CLOUDY    58  50  75 NE7       30.32R
WHITE PLAINS   MOCLDY    57  50  77 E13       30.31R
ISLIP          CLOUDY    59  57  93 NE12G22   30.29R
NEW YORK CITY  CLOUDY    62  56  80 NE22G32   30.28R
CENTRAL PARK   CLOUDY    61  54  77 E14G20    30.31R
$$

NYZ005>009-017-018-044>046-055-056-291000-
CENTRAL


CITY           SKY/WX    TMP DP  RH WIND       PRES   REMARKS
FULTON         CLOUDY    55  46  71 E9        30.27S
SYRACUSE       CLOUDY    53  47  79 NE9       30.27R
ROME           CLOUDY    54  47  77 E14       30.33R
ELMIRA         CLOUDY    56  53  90 E7        30.23R
BINGHAMTON     CLOUDY    52  49  89 E7        30.26R
MONTICELLO     CLOUDY    52  48  87 E15G21    30.32R
$$

NYZ026>034-041>043-087-291000-
NORTH


CITY           SKY/WX    TMP DP  RH WIND       PRES   REMARKS
WATERTOWN      PTCLDY    48  45  89 E7        30.34R
FORT DRUM      NOT AVBL
OGDENSBURG     FAIR      49  48  96 E8        30.39R
MASSENA        CLOUDY    51  47  86 NE10      30.41R
SARANAC LAKE   CLEAR     35  33  92 CALM      30.37R
PLATTSBURGH    PTCLDY    47  45  93 CALM      30.41R
$$

NYZ001>004-010>016-019>021-085-291000-
WEST


CITY           SKY/WX    TMP DP  RH WIND       PRES   REMARKS
NIAGARA FALLS  CLOUDY    61  52  72 E13       30.17R
BUFFALO        LGT RAIN  60  54  80 E13       30.17R
DUNKIRK        CLOUDY    60  53  77 NE12      30.12R
JAMESTOWN      CLOUDY    59  52  77 SE12      30.13R
WELLSVILLE     CLOUDY    53  52  96 SE15G21   30.21R FOG
ROCHESTER      LGT RAIN  57  53  86 E10       30.24R
PENN YAN       CLOUDY    55  53  93 CALM      30.25S
$$

             KEY
       WCI = WIND CHILL INDEX
       VSB = VISIBILITY
       HX  = HEAT INDEX
$$




USA.gov is the U.S. government's official web portal to all federal, state and local government web resources and services.